Location: Bacharowice
(49.9333°N, 19.5833°E)
Time: 14:34:07
(UTC+00:00)

SOZ - Pass Details

Date: 05 October 2021
Orbit: 306 x 16685 km, 52.1° (Epoch: 27 October)

Event Time Altitude Azimuth Distance (km) Brightness Sun altitude
Rises 22:13:52 0° 188° (S) 22,160 13.0 -44.6°
Reaches altitude 10° 22:45:45 10° 188° (S) 20,243 12.7 -44.7°
Enters shadow 22:49:53 11° 188° (S) 19,877 12.7 -44.6°
Exits shadow 23:51:02 39° 178° (S) 10,673 11.2 -41.7°
Maximum altitude 00:11:38 52° 137° (SE) 6,001 10.2 -40.0°
Drops below altitude 10° 00:27:00 10° 67° (ENE) 4,787 10.6 -38.6°
Sets 00:29:13 0° 61° (ENE) 5,163 11.1 -38.3°
